Location: Fours
(44.3167°N, 6.7000°E)
Time: 13:50:46
(UTC+00:00)

Cosmos 2227 - Pass Details

Date: 29 May 2022
Orbit: 833 x 863 km, 71.0° (Epoch: 28 June)

Event Time Altitude Azimuth Distance (km) Brightness Sun altitude
Rises 22:01:47 0° 321° (NW) 3,446 8.7 -20.9°
Reaches altitude 10° 22:04:48 10° 307° (NW) 2,507 7.5 -21.1°
Maximum altitude 22:08:59 21° 260° (W) 1,835 6.0 -21.4°
Enters shadow 22:11:49 15° 224° (SW) 2,160 6.1 -21.5°
